Regional Weather Roundup
Issued by NWS

Home | Current Version | Previous Version | Graphics & Text | Print | Product List | Glossary On
Versions: 1 2 3 4 5 6 7 8 9 10 11 12 13 14 15 16 17 18 19 20 21 22 23 24 25 26 27 28 29 30 31 32 33 34 35 36 37 38 39 40 41 42 43 44 45 46 47 48 49 50
000
ASUS45 KCYS 301110
RWRWY

WYOMING REGIONAL WEATHER ROUNDUP
NATIONAL WEATHER SERVICE CHEYENNE WY
500 AM MDT SAT MAY 30 2015

NOTE:  "FAIR" INDICATES FEW OR NO CLOUDS BELOW 12,000 FEET
WITH NO SIGNIFICANT WEATHER AND/OR OBSTRUCTIONS TO VISIBILITY.

WYZ001-301200-
YELLOWSTONE NATIONAL PARK

CITY           SKY/WX    TMP DP  RH WIND       PRES   REMARKS
LK YELLOWSTONE   N/A     32  31  96 CALM      30.30S
W YELLOWSTONE  NOT AVBL

$$
WYZ002>013-054>058-071-098>099-301200-
NORTHERN WYOMING

CITY           SKY/WX    TMP DP  RH WIND       PRES   REMARKS
JACKSON        FAIR      37  36  93 N5        30.25S WCI  34
CODY           FAIR      45  39  81 N3        30.15F
GREYBULL       FAIR      51  45  79 S3        30.14S
WORLAND        FAIR      50  44  80 SE10      30.14S
SHERIDAN       FAIR      38  36  92 CALM      30.13F
BUFFALO        FAIR      44  42  93 CALM      30.16S
GILLETTE       FAIR      42  40  92 SE12      30.20S
HULETT         FAIR      36  32  87 S5        30.25R WCI  32
NEWCASTLE      FAIR      39  39 100 SE8       30.28S WCI  34

$$
WYZ014>020-022>026-101>103-301200-
CENTRAL WYOMING

CITY           SKY/WX    TMP DP  RH WIND       PRES   REMARKS
BIG PINEY      FAIR      36  34  92 N3        30.29F
PINEDALE       FAIR      36  36 100 NW5       30.30F WCI  32
DUBOIS         FAIR      37  36  93 CALM      30.27F
LANDER         FAIR      43  40  89 SE3       30.21S
RIVERTON       FAIR      42  40  92 NW7       30.22S
CASPER         FAIR      36  35  96 CALM      30.23S FOG
DOUGLAS        FOG       40  39  97 SE7       30.25F VSB 3/4

$$
WYZ021-027>030-104>119-301200-
SOUTHERN WYOMING

CITY           SKY/WX    TMP DP  RH WIND       PRES   REMARKS
EVANSTON       FAIR      44  37  76 SE5       30.26S
KEMMERER       FAIR      41  36  81 N9        30.28S
FORT BRIDGER   SUNNY     43  41  93 NW7       30.29F
ROCK SPRINGS   FAIR      43  38  82 S7        30.26F
DIXON          FAIR      41  36  82 E3        30.33S
RAWLINS        FAIR      36  34  92 CALM      30.30S
SARATOGA       FAIR      36  34  93 S5        30.32R WCI  32
LARAMIE        FAIR      37  36  96 S9        30.30S WCI  30
CHEYENNE       CLOUDY    45  43  93 SW13      30.29F
TORRINGTON     CLOUDY    46  45  96 SE9       30.28S FOG
PINE BLUFFS    CLOUDY    43  41  93 S3        30.30S

$$



USA.gov is the U.S. government's official web portal to all federal, state and local government web resources and services.